Location: Gilevgi
(36.8751°N, 30.0581°E)
Time: 23:47:36
(UTC+00:00)

Okean 1-7 Rocket - Visible Passes

Search period start: 14 March 2026 00:00
Search period end: 24 March 2026 00:00
Orbit: 611 x 642 km, 82.5° (Epoch: 14 March)

Date Brightness Start Highest point End Pass type
(mag) Time Alt. Az. Time Alt. Az. Time Alt. Az.
14 Mar 5.3 03:18:14 10° N 03:22:22 37° ENE 03:26:27 10° SSE visible
14 Mar 6.3 17:26:45 10° SW 17:30:16 22° WNW 17:33:47 10° NNW visible
15 Mar 3.8 03:37:38 10° N 03:42:05 79° E 03:46:28 10° S visible
15 Mar 7.2 17:48:54 10° W 17:50:12 11° WNW 17:51:31 10° NW visible
16 Mar 7.0 02:21:27 10° NE 02:23:22 13° ENE 02:25:17 10° E visible
16 Mar 4.1 16:26:57 10° SSW 16:31:26 67° W 16:35:57 10° N visible
17 Mar 6.0 02:39:38 10° NNE 02:43:17 25° ENE 02:46:53 10° SE visible
17 Mar 5.7 16:47:07 10° SW 16:51:11 32° WNW 16:55:15 10° NNW visible
18 Mar 4.6 02:58:45 10° N 03:03:04 50° E 03:07:18 10° SSE visible
18 Mar 6.8 17:08:08 10° WSW 17:11:02 17° WNW 17:13:57 10° NNW visible
19 Mar 3.5 03:18:18 10° N 03:22:44 76° W 03:27:05 10° S visible
20 Mar 6.6 02:01:19 10° NNE 02:04:09 17° ENE 02:06:57 10° ESE visible
21 Mar 5.4 02:20:01 10° NNE 02:24:01 32° ENE 02:27:55 10° SE visible
22 Mar 3.9 02:39:20 10° N 02:43:44 69° E 02:48:04 10° SSE visible
22 Mar 7.1 16:49:51 10° W 16:51:49 13° WNW 16:53:47 10° NW visible
23 Mar 6.9 01:23:51 10° NE 01:24:58 11° ENE 01:26:03 10° E visible
23 Mar 3.6 02:59:02 10° NNW 03:03:20 55° W 03:07:35 10° S visible
